Tracking 35275 objects as of 8-Sep-2026
HD Live streaming from Space Station
objects crossing your sky now

STARLINK-1440


STARLINK-1440 is no longer on orbit
STARLINK-1440 is classified as:


NORAD ID: 45657
Int'l Code: 2020-035A
Launch date: June 4, 2020
Source: United States (US)
Launch site: AIR FORCE EASTERN TEST RANGE (AFETR)
Decay date: 2020-07-14
Your satellite tracking list
Your tracking list is empty




NASA's NSSDC Master Catalog

Two Line Element Set (TLE):
1 45657U 20035A   20196.59974008  .38210219  12083-4  47903-3 0  9997
2 45657  53.0001 319.7129 0028054 181.2741 293.9291 16.46735707  7405
Source of the keplerian elements: AFSPC